This is the latest recevied weather packets stored in our database for station/object KC7UNY-13. If no packets are shown the sender has not sent any weather packets the latest 10 day(s).
| Time | Temp. | Humidity | Pressure | Rain* | Wind** | Luminosity | Snow |
|---|---|---|---|---|---|---|---|
| 1777248533 | 25.56° C | 27% | 1009.8 hPa | 0 mm | - | 193 W/m² | - |
| 1777248230 | 26.11° C | 26% | 1009.6 hPa | 0 mm | - | 209 W/m² | - |
| 1777247924 | 25.56° C | 27% | 1009.6 hPa | 0 mm | - | 223 W/m² | - |
| 1777247620 | 26.11° C | 27% | 1009.8 hPa | 0 mm | - | 251 W/m² | - |
| 1777247318 | 26.11° C | 27% | 1009.5 hPa | 0 mm | - | 278 W/m² | - |
| 1777247015 | 26.11° C | 27% | 1009.7 hPa | 0 mm | - | 294 W/m² | - |
| 1777246712 | 26.11° C | 27% | 1009.8 hPa | 0 mm | - | 286 W/m² | - |
| 1777246408 | 26.11° C | 26% | 1009.6 hPa | 0 mm | - | 297 W/m² | - |
| 1777246105 | 26.11° C | 27% | 1009.7 hPa | 0 mm | - | 314 W/m² | - |
| 1777245803 | 25.56° C | 28% | 1009.6 hPa | 0 mm | - | 327 W/m² | - |
| 1777245500 | 25.56° C | 28% | 1009.7 hPa | 0 mm | - | 344 W/m² | - |
| 1777245190 | 25.56° C | 27% | 1009.6 hPa | 0 mm | - | 358 W/m² | - |
| 1777244886 | 25.56° C | 27% | 1009.7 hPa | 0 mm | - | 375 W/m² | - |
| 1777244582 | 25.56° C | 28% | 1009.7 hPa | 0 mm | - | 396 W/m² | - |
| 1777244279 | 25.56° C | 28% | 1009.7 hPa | 0 mm | - | 420 W/m² | - |
| 1777243977 | 26.11° C | 27% | 1009.7 hPa | 0 mm | - | 446 W/m² | - |
| 1777243673 | 25° C | 28% | 1009.8 hPa | 0 mm | - | 459 W/m² | - |
| 1777243370 | 25.56° C | 28% | 1009.6 hPa | 0 mm | - | 469 W/m² | - |
| 1777243065 | 25.56° C | 28% | 1009.7 hPa | 0 mm | - | 488 W/m² | - |
| 1777242763 | 26.11° C | 27% | 1009.9 hPa | 0 mm | - | 517 W/m² | - |
| 1777242459 | 26.11° C | 27% | 1009.8 hPa | 0 mm | - | 510 W/m² | - |
| 1777242156 | 25.56° C | 27% | 1010 hPa | 0 mm | - | 529 W/m² | - |
| 1777241853 | 25° C | 27% | 1010.1 hPa | 0 mm | - | 540 W/m² | - |
| 1777241550 | 25° C | 28% | 1010.1 hPa | 0 mm | - | 549 W/m² | - |
| 1777241248 | 25° C | 28% | 1010.3 hPa | 0 mm | - | 580 W/m² | - |
* Rain latest hour (hover to see other rain measurements)
** Current wind speed in m/s (hover to see current wind gust speed)